,,Stat1,,Stat2,,Stat3,,Stat4,,Wind1,,Wind1,
time,status,PR1M_SUM,status,RH1M_AVG,status,SR1M_AVG,status,TA1M_AVG,status,W1dAve1m,status,W1sAve1m,
1999-11-02, 00:01:00,VALID,0,VALID,97.6376,VALID,-0.0169808,VALID,19.8805,VALID,131,VALID,0.095846,
1999-11-02, 00:02:00,VALID,0,VALID,97.7012,VALID,0,VALID,19.9071,VALID,155,VALID,0,
1999-11-02, 00:03:00,VALID,0,VALID,97.7101,VALID,0,VALID,19.9004,VALID,168,VALID,0,
1999-11-02, 00:04:01,VALID,0,VALID,97.7254,VALID,0,VALID,19.9131,VALID,184,VALID,0.154848,
1999-11-02, 00:05:01,VALID,0,VALID,97.7139,VALID,-0.0339617,VALID,19.8969,VALID,242,VALID,0.295873,
1999-11-02, 00:06:00,VALID,0,VALID,97.7317,VALID,0,VALID,19.9069,VALID,272,VALID,0.236225,
1999-11-02, 00:07:00,VALID,0,VALID,97.7559,VALID,-0.0169808,VALID,19.8902,VALID,276,VALID,0.0295608,
1999-11-02, 00:08:00,VALID,0,VALID,97.7991,VALID,0,VALID,19.8972,VALID,273,VALID,0,
1999-11-02, 00:09:00,VALID,0,VALID,97.8334,VALID,0.0169808,VALID,19.9002,VALID,277,VALID,0.0719572,
1999-11-02, 00:10:00,VALID,0,VALID,97.8423,VALID,0,VALID,19.887,VALID,302,VALID,0.545732,
1999-11-02, 00:11:00,VALID,0,VALID,97.9225,VALID,0,VALID,19.874,VALID,308,VALID,0.656055,
1999-11-02, 00:12:00,VALID,0,VALID,98,VALID,0.0169808,VALID,19.8743,VALID,311,VALID,0.562706,
1999-11-02, 00:13:00,VALID,0,VALID,98.0509,VALID,0.0169808,VALID,19.8512,VALID,310,VALID,0.498242,
1999-11-02, 00:14:00,VALID,0,VALID,98.0992,VALID,0,VALID,19.8382,VALID,340,VALID,0.45204,
1999-11-02, 00:15:00,VALID,0,VALID,98.1005,VALID,0,VALID,19.8158,VALID,46,VALID,0.899805,
1999-11-02, 00:16:00,VALID,0,VALID,98.2073,VALID,0.0169808,VALID,19.8357,VALID,295,VALID,0.24375,
1999-11-02, 00:17:00,VALID,0,VALID,98.2264,VALID,-0.0169808,VALID,19.8551,VALID,283,VALID,0.100718,
1999-11-02, 00:18:00,VALID,0,VALID,98.2111,VALID,0,VALID,19.8581,VALID,348,VALID,0.0890625,
1999-11-02, 00:19:00,VALID,0,VALID,98.2276,VALID,-0.0169808,VALID,19.8708,VALID,4,VALID,0,
1999-11-02, 00:20:00,VALID,0,VALID,98.1335,VALID,-0.0169808,VALID,19.8808,VALID,283,VALID,0,
1999-11-02, 00:21:00,VALID,0,VALID,98.0916,VALID,0.0169808,VALID,19.8837,VALID,278,VALID,0,
1999-11-02, 00:22:00,VALID,0,VALID,98.0547,VALID,0,VALID,19.8778,VALID,296,VALID,0.527872,
1999-11-02, 00:23:00,VALID,0,VALID,98.0483,VALID,-0.0339617,VALID,19.8708,VALID,307,VALID,0.360156,
1999-11-02, 00:24:00,VALID,0,VALID,97.9059,VALID,-0.0169808,VALID,19.8544,VALID,304,VALID,0.790064,
1999-11-02, 00:25:00,VALID,0,VALID,97.8996,VALID,-0.0339617,VALID,19.8417,VALID,310,VALID,0.815995,
1999-11-02, 00:26:00,VALID,0,VALID,97.8678,VALID,-0.0169808,VALID,19.7999,VALID,314,VALID,0.98125,
1999-11-02, 00:27:00,VALID,0,VALID,97.9746,VALID,-0.0849042,VALID,19.7775,VALID,312,VALID,0.967231,
1999-11-02, 00:28:00,VALID,0,VALID,98.1056,VALID,-0.0169808,VALID,19.7484,VALID,310,VALID,1.15296,
1999-11-02, 00:29:00,VALID,0,VALID,98.2137,VALID,0,VALID,19.7156,VALID,317,VALID,1.05859,
1999-11-02, 00:30:00,VALID,0,VALID,98.3624,VALID,0,VALID,19.6932,VALID,327,VALID,0.599301,
1999-11-02, 00:31:00,VALID,0,VALID,98.5099,VALID,-0.0169808,VALID,19.6994,VALID,312,VALID,0.429688,
1999-11-02, 00:32:00,VALID,0,VALID,98.5786,VALID,0,VALID,19.7064,VALID,330,VALID,0.498047,
1999-11-02, 00:33:00,VALID,0,VALID,98.4947,VALID,-0.0169808,VALID,19.6609,VALID,318,VALID,0.906055,
1999-11-02, 00:34:00,VALID,0,VALID,98.5392,VALID,-0.0169808,VALID,19.6572,VALID,344,VALID,0.39668,
1999-11-02, 00:35:00,VALID,0,VALID,98.6498,VALID,0,VALID,19.6696,VALID,84,VALID,0.370271,
1999-11-02, 00:36:01,VALID,0,VALID,98.7299,VALID,0,VALID,19.69,VALID,110,VALID,0.38528,
1999-11-02, 00:37:00,VALID,0,VALID,98.7782,VALID,-0.0339617,VALID,19.6997,VALID,104,VALID,0.568201,
1999-11-02, 00:38:00,VALID,0,VALID,98.8011,VALID,-0.0339617,VALID,19.7161,VALID,107,VALID,0.699609,
1999-11-02, 00:39:00,VALID,0,VALID,98.8304,VALID,-0.0509425,VALID,19.742,VALID,68,VALID,0.544872,
1999-11-02, 00:40:00,VALID,0,VALID,98.7363,VALID,-0.0339617,VALID,19.7385,VALID,272,VALID,0.744449,
1999-11-02, 00:41:00,VALID,0,VALID,98.674,VALID,-0.0509425,VALID,19.732,VALID,273,VALID,0.407617,
1999-11-02, 00:42:00,VALID,0,VALID,98.6918,VALID,-0.0509425,VALID,19.7484,VALID,174,VALID,0.465495,
1999-11-02, 00:43:00,VALID,0,VALID,98.6435,VALID,0,VALID,19.7517,VALID,137,VALID,0.542146,
1999-11-02, 00:44:00,VALID,0,VALID,98.5303,VALID,-0.0169808,VALID,19.7258,VALID,129,VALID,0.242599,
1999-11-02, 00:45:00,VALID,0,VALID,98.3344,VALID,0,VALID,19.7059,VALID,109,VALID,0.478207,
1999-11-02, 00:46:00,VALID,0,VALID,98.1971,VALID,-0.0339617,VALID,19.7091,VALID,144,VALID,0.485677,
1999-11-02, 00:47:00,VALID,0,VALID,98.0051,VALID,-0.0509425,VALID,19.7062,VALID,186,VALID,0.352431,
1999-11-02, 00:48:01,VALID,0,VALID,97.8182,VALID,0,VALID,19.7164,VALID,198,VALID,0.253125,
1999-11-02, 00:49:00,VALID,0,VALID,97.6465,VALID,-0.0169808,VALID,19.7064,VALID,235,VALID,0.436914,
1999-11-02, 00:50:00,VALID,0,VALID,97.499,VALID,-0.0339617,VALID,19.6865,VALID,250,VALID,0.202097,
1999-11-02, 00:51:00,VALID,0,VALID,97.4392,VALID,-0.0169808,VALID,19.6962,VALID,130,VALID,0.262952,
1999-11-02, 00:52:00,VALID,0,VALID,97.3413,VALID,-0.0509425,VALID,19.7037,VALID,124,VALID,0.633235,
1999-11-02, 00:53:00,VALID,0,VALID,97.3057,VALID,-0.0169808,VALID,19.6833,VALID,227,VALID,0.157617,
1999-11-02, 00:54:00,VALID,0,VALID,97.2854,VALID,-0.0509425,VALID,19.6902,VALID,148,VALID,0.523638,
1999-11-02, 00:55:00,VALID,0,VALID,97.2803,VALID,-0.0169808,VALID,19.6771,VALID,72,VALID,0.0925164,
1999-11-02, 00:56:00,VALID,0,VALID,97.2956,VALID,-0.0169808,VALID,19.6771,VALID,129,VALID,0,
1999-11-02, 00:57:00,VALID,0,VALID,97.3388,VALID,0,VALID,19.6636,VALID,154,VALID,0,
1999-11-02, 00:58:00,VALID,0,VALID,97.3375,VALID,0,VALID,19.648,VALID,240,VALID,0,
1999-11-02, 00:59:01,VALID,0,VALID,97.3286,VALID,-0.0339617,VALID,19.6281,VALID,182,VALID,0.316201,
1999-11-02, 01:00:00,VALID,0,VALID,97.3782,VALID,-0.0509425,VALID,19.6091,VALID,152,VALID,0.541324,
1999-11-02, 01:01:00,VALID,0,VALID,97.4227,VALID,0,VALID,19.5927,VALID,189,VALID,0.402561,
1999-11-02, 01:02:00,VALID,0,VALID,97.4481,VALID,0,VALID,19.5865,VALID,116,VALID,0.574002,
1999-11-02, 01:03:00,VALID,0,VALID,97.4672,VALID,-0.0169808,VALID,19.593,VALID,190,VALID,0.374609,
1999-11-02, 01:04:00,VALID,0,VALID,97.4469,VALID,-0.0509425,VALID,19.5798,VALID,193,VALID,0.446289,
1999-11-02, 01:05:00,VALID,0,VALID,97.466,VALID,-0.0509425,VALID,19.5644,VALID,130,VALID,0.494243,
1999-11-02, 01:06:00,VALID,0,VALID,97.5346,VALID,-0.0339617,VALID,19.5606,VALID,289,VALID,0.231702,
1999-11-02, 01:07:00,VALID,0,VALID,97.5855,VALID,-0.0169808,VALID,19.5544,VALID,189,VALID,0.174831,
1999-11-02, 01:08:00,VALID,0,VALID,97.6211,VALID,-0.0169808,VALID,19.5509,VALID,131,VALID,0.398828,
1999-11-02, 01:09:00,VALID,0,VALID,97.6491,VALID,-0.0339617,VALID,19.5577,VALID,193,VALID,0.136018,
1999-11-02, 01:10:00,VALID,0,VALID,97.7025,VALID,-0.0169808,VALID,19.538,VALID,253,VALID,0.796258,
1999-11-02, 01:11:00,VALID,0,VALID,97.8245,VALID,-0.0679233,VALID,19.5547,VALID,68,VALID,0.608008,
1999-11-02, 01:12:00,VALID,0,VALID,97.8017,VALID,-0.0679233,VALID,19.5442,VALID,69,VALID,0.212457,
1999-11-02, 01:13:00,VALID,0,VALID,97.8322,VALID,-0.0339617,VALID,19.5542,VALID,131,VALID,0,
1999-11-02, 01:14:00,VALID,0,VALID,97.7711,VALID,-0.0169808,VALID,19.5706,VALID,144,VALID,0.0135691,
1999-11-02, 01:15:00,VALID,0,VALID,97.6262,VALID,0,VALID,19.5641,VALID,299,VALID,0.903372,
1999-11-02, 01:16:00,VALID,0,VALID,97.691,VALID,0,VALID,19.5674,VALID,16,VALID,0.465278,
1999-11-02, 01:17:00,VALID,0,VALID,97.6783,VALID,0,VALID,19.5967,VALID,74,VALID,0.0835503,
1999-11-02, 01:18:00,VALID,0,VALID,97.6173,VALID,0,VALID,19.587,VALID,52,VALID,0.196875,
1999-11-02, 01:19:00,VALID,0,VALID,97.6338,VALID,-0.0169808,VALID,19.5706,VALID,321,VALID,0.48457,
1999-11-02, 01:20:00,VALID,0,VALID,97.6376,VALID,-0.0169808,VALID,19.5611,VALID,292,VALID,0.719367,
1999-11-02, 01:21:01,VALID,0,VALID,97.6859,VALID,-0.0339617,VALID,19.5509,VALID,23,VALID,0.0818257,
1999-11-02, 01:22:00,VALID,0,VALID,97.7279,VALID,-0.0339617,VALID,19.5776,VALID,148,VALID,0.221284,
1999-11-02, 01:23:00,VALID,0,VALID,97.7432,VALID,0,VALID,19.5676,VALID,174,VALID,0,
1999-11-02, 01:24:00,VALID,0,VALID,97.7419,VALID,-0.0509425,VALID,19.5805,VALID,129,VALID,0.327324,
1999-11-02, 01:25:00,VALID,0,VALID,97.7203,VALID,0,VALID,19.5741,VALID,114,VALID,0.821752,
1999-11-02, 01:26:00,VALID,0,VALID,97.7215,VALID,0,VALID,19.5674,VALID,87,VALID,0.500977,
1999-11-02, 01:27:00,VALID,0,VALID,97.7533,VALID,0,VALID,19.5679,VALID,95,VALID,0.0698785,
1999-11-02, 01:28:00,VALID,0,VALID,97.7724,VALID,0,VALID,19.5808,VALID,117,VALID,0.392887,
1999-11-02, 01:29:00,VALID,0,VALID,97.794,VALID,0,VALID,19.5776,VALID,111,VALID,0.123972,
1999-11-02, 01:30:00,VALID,0,VALID,97.7889,VALID,0,VALID,19.5671,VALID,148,VALID,0.0664063,
1999-11-02, 01:31:01,VALID,0,VALID,97.8156,VALID,0,VALID,19.5808,VALID,255,VALID,0.107856,
1999-11-02, 01:32:00,VALID,0,VALID,97.8589,VALID,-0.0169808,VALID,19.5905,VALID,238,VALID,0,
1999-11-02, 01:33:00,VALID,0,VALID,97.8665,VALID,-0.0339617,VALID,19.5905,VALID,238,VALID,0,
1999-11-02, 01:34:00,VALID,0,VALID,97.8741,VALID,-0.0509425,VALID,19.6039,VALID,193,VALID,0,
1999-11-02, 01:35:00,VALID,0,VALID,97.8843,VALID,-0.0509425,VALID,19.6039,VALID,174,VALID,0,
1999-11-02, 01:36:00,VALID,0,VALID,97.8627,VALID,0,VALID,19.5835,VALID,160,VALID,0.366982,
1999-11-02, 01:37:00,VALID,0,VALID,97.8881,VALID,-0.0509425,VALID,19.5902,VALID,113,VALID,0.507813,
1999-11-02, 01:38:00,VALID,0,VALID,97.9008,VALID,0,VALID,19.5905,VALID,116,VALID,0.258789,
1999-11-02, 01:39:00,VALID,0,VALID,97.8919,VALID,-0.0169808,VALID,19.5868,VALID,164,VALID,0.115385,
1999-11-02, 01:40:00,VALID,0,VALID,97.8665,VALID,0,VALID,19.5873,VALID,275,VALID,0.531456,
1999-11-02, 01:41:00,VALID,0,VALID,97.9021,VALID,-0.0169808,VALID,19.5808,VALID,257,VALID,0.348047,
1999-11-02, 01:42:00,VALID,0,VALID,98.0127,VALID,-0.0169808,VALID,19.6002,VALID,96,VALID,0.957031,
1999-11-02, 01:43:00,VALID,0,VALID,97.9517,VALID,-0.0169808,VALID,19.6032,VALID,140,VALID,0.668586,
1999-11-02, 01:44:00,VALID,0,VALID,97.8703,VALID,-0.0169808,VALID,19.5868,VALID,270,VALID,0.537829,
1999-11-02, 01:45:00,VALID,0,VALID,97.8436,VALID,0.0169808,VALID,19.5838,VALID,315,VALID,0.525699,
1999-11-02, 01:46:00,VALID,0,VALID,97.8512,VALID,0,VALID,19.584,VALID,332,VALID,0.317925,
1999-11-02, 01:47:00,VALID,0,VALID,97.7393,VALID,0,VALID,19.5676,VALID,6,VALID,0.637804,
1999-11-02, 01:48:00,VALID,0,VALID,97.7215,VALID,0,VALID,19.5517,VALID,51,VALID,1.01836,
1999-11-02, 01:49:00,VALID,0,VALID,97.7063,VALID,-0.0169808,VALID,19.5579,VALID,117,VALID,1.1084,
1999-11-02, 01:50:00,VALID,0,VALID,97.6834,VALID,-0.0509425,VALID,19.5385,VALID,96,VALID,0.530633,
1999-11-02, 01:51:00,VALID,0,VALID,97.6859,VALID,-0.0169808,VALID,19.5415,VALID,114,VALID,0.281044,
1999-11-02, 01:52:00,VALID,0,VALID,97.7126,VALID,-0.0169808,VALID,19.532,VALID,105,VALID,0.969806,
1999-11-02, 01:53:00,VALID,0,VALID,97.7254,VALID,0,VALID,19.5258,VALID,157,VALID,0.125195,
1999-11-02, 01:54:01,VALID,0,VALID,97.7139,VALID,0,VALID,19.5129,VALID,120,VALID,0.45012,
1999-11-02, 01:55:00,VALID,0,VALID,97.7813,VALID,-0.0169808,VALID,19.493,VALID,112,VALID,0.370271,
1999-11-02, 01:56:00,VALID,0,VALID,97.8258,VALID,-0.0169808,VALID,19.49,VALID,112,VALID,0.398633,
1999-11-02, 01:57:00,VALID,0,VALID,97.8716,VALID,-0.0169808,VALID,19.5004,VALID,216,VALID,0.201823,
1999-11-02, 01:58:00,VALID,0,VALID,97.9428,VALID,0,VALID,19.4935,VALID,12,VALID,0.606908,
1999-11-02, 01:59:00,VALID,0,VALID,97.9759,VALID,0,VALID,19.497,VALID,229,VALID,0.258224,
1999-11-02, 02:00:00,VALID,0,VALID,97.9924,VALID,-0.0339617,VALID,19.4937,VALID,95,VALID,0.850946,
1999-11-02, 02:01:00,VALID,0,VALID,98.0026,VALID,-0.0339617,VALID,19.4903,VALID,122,VALID,0.221788,
1999-11-02, 02:02:00,VALID,0,VALID,98.0267,VALID,-0.0169808,VALID,19.497,VALID,255,VALID,0,
1999-11-02, 02:03:00,VALID,0,VALID,98.0407,VALID,0,VALID,19.5037,VALID,180,VALID,0,
1999-11-02, 02:04:01,VALID,0,VALID,98.0433,VALID,0,VALID,19.4937,VALID,156,VALID,0,
1999-11-02, 02:05:01,VALID,0,VALID,98.0903,VALID,-0.0339617,VALID,19.4875,VALID,85,VALID,0,
1999-11-02, 02:06:00,VALID,0,VALID,98.1424,VALID,-0.0339617,VALID,19.484,VALID,65,VALID,0,
1999-11-02, 02:07:00,VALID,0,VALID,98.159,VALID,-0.0169808,VALID,19.4838,VALID,137,VALID,0,
1999-11-02, 02:08:00,VALID,0,VALID,98.1068,VALID,-0.0339617,VALID,19.4736,VALID,69,VALID,0,
1999-11-02, 02:09:00,VALID,0,VALID,98.1412,VALID,0,VALID,19.4706,VALID,108,VALID,0,
1999-11-02, 02:10:00,VALID,0,VALID,98.1081,VALID,-0.0169808,VALID,19.4644,VALID,108,VALID,0,
1999-11-02, 02:11:00,VALID,0,VALID,98.0916,VALID,0,VALID,19.4609,VALID,168,VALID,0,
1999-11-02, 02:12:00,VALID,0,VALID,98.0878,VALID,-0.0339617,VALID,19.4619,VALID,207,VALID,0,
1999-11-02, 02:13:00,VALID,0,VALID,98.0763,VALID,-0.0339617,VALID,19.4283,VALID,192,VALID,0,
1999-11-02, 02:14:00,VALID,0,VALID,98.1145,VALID,0,VALID,19.4321,VALID,111,VALID,0,
1999-11-02, 02:15:01,VALID,0,VALID,98.1577,VALID,-0.0339617,VALID,19.4291,VALID,319,VALID,0,
1999-11-02, 02:16:01,VALID,0,VALID,98.1857,VALID,-0.0339617,VALID,19.4291,VALID,213,VALID,0.0815972,
1999-11-02, 02:17:00,VALID,0,VALID,98.2251,VALID,0,VALID,19.4189,VALID,96,VALID,1.33898,
1999-11-02, 02:18:00,VALID,0,VALID,98.2543,VALID,0,VALID,19.4184,VALID,338,VALID,0.972266,
1999-11-02, 02:19:00,VALID,0,VALID,98.2887,VALID,0,VALID,19.4447,VALID,208,VALID,0.520508,
1999-11-02, 02:20:00,VALID,0,VALID,98.3395,VALID,0,VALID,19.4477,VALID,156,VALID,0.867804,
1999-11-02, 02:21:00,VALID,0,VALID,98.3421,VALID,0,VALID,19.4604,VALID,145,VALID,0.664063,
1999-11-02, 02:22:00,VALID,0,VALID,98.323,VALID,0.0169808,VALID,19.4865,VALID,66,VALID,0.832348,
1999-11-02, 02:23:00,VALID,0,VALID,98.3014,VALID,0.0339617,VALID,19.4965,VALID,295,VALID,0.166797,
1999-11-02, 02:24:00,VALID,0,VALID,98.1971,VALID,0,VALID,19.483,VALID,167,VALID,0.157452,
1999-11-02, 02:25:00,VALID,0,VALID,98.1933,VALID,0.0339617,VALID,19.4838,VALID,92,VALID,0.349918,
1999-11-02, 02:26:00,VALID,0,VALID,98.173,VALID,0.0339617,VALID,19.4798,VALID,95,VALID,0.585352,
1999-11-02, 02:27:01,VALID,0,VALID,98.1259,VALID,0.0169808,VALID,19.4602,VALID,134,VALID,0.545356,
1999-11-02, 02:28:00,VALID,0,VALID,98.089,VALID,0,VALID,19.448,VALID,117,VALID,1.02899,
1999-11-02, 02:29:00,VALID,0,VALID,98.1208,VALID,0.0169808,VALID,19.4383,VALID,44,VALID,0.39926,
1999-11-02, 02:30:00,VALID,0,VALID,98.1463,VALID,0,VALID,19.4253,VALID,91,VALID,0.0787418,
1999-11-02, 02:31:00,VALID,0,VALID,98.1615,VALID,0.0169808,VALID,19.4219,VALID,125,VALID,0,
1999-11-02, 02:32:00,VALID,0,VALID,98.1946,VALID,0,VALID,19.4059,VALID,150,VALID,0,
1999-11-02, 02:33:00,VALID,0,VALID,98.22,VALID,0,VALID,19.3997,VALID,130,VALID,0,
1999-11-02, 02:34:00,VALID,0,VALID,98.2353,VALID,0,VALID,19.3965,VALID,121,VALID,0.0890625,
1999-11-02, 02:35:00,VALID,0,VALID,98.2429,VALID,-0.0169808,VALID,19.3734,VALID,120,VALID,0.539268,
1999-11-02, 02:36:00,VALID,0,VALID,98.276,VALID,0,VALID,19.3612,VALID,205,VALID,0.0536595,
1999-11-02, 02:37:00,VALID,0,VALID,98.2899,VALID,0.0169808,VALID,19.354,VALID,155,VALID,0.186867,
1999-11-02, 02:38:01,VALID,0,VALID,98.2111,VALID,0,VALID,19.3609,VALID,225,VALID,1.06465,
1999-11-02, 02:39:00,VALID,0,VALID,98.1475,VALID,-0.0169808,VALID,19.397,VALID,75,VALID,0.590745,
1999-11-02, 02:40:00,VALID,0,VALID,98.0433,VALID,0,VALID,19.4164,VALID,327,VALID,0.290707,
1999-11-02, 02:41:00,VALID,0,VALID,97.9873,VALID,-0.0169808,VALID,19.4089,VALID,150,VALID,0.301562,
1999-11-02, 02:42:00,VALID,0,VALID,97.9123,VALID,0,VALID,19.4258,VALID,163,VALID,0.222005,
1999-11-02, 02:43:00,VALID,0,VALID,97.8449,VALID,0,VALID,19.4159,VALID,166,VALID,0.0688734,
1999-11-02, 02:44:00,VALID,0,VALID,97.8258,VALID,0,VALID,19.4062,VALID,211,VALID,0,
1999-11-02, 02:45:00,VALID,0,VALID,97.8322,VALID,-0.0169808,VALID,19.403,VALID,271,VALID,0,
1999-11-02, 02:46:00,VALID,0,VALID,97.8385,VALID,0,VALID,19.4064,VALID,229,VALID,0,
1999-11-02, 02:47:00,VALID,0,VALID,97.8347,VALID,0.0169808,VALID,19.3967,VALID,138,VALID,0,
1999-11-02, 02:48:01,VALID,0,VALID,97.7915,VALID,0.0169808,VALID,19.3704,VALID,153,VALID,0,
1999-11-02, 02:49:01,VALID,0,VALID,97.8156,VALID,-0.0169808,VALID,19.3607,VALID,271,VALID,0.498047,
1999-11-02, 02:50:00,VALID,0,VALID,97.8042,VALID,0,VALID,19.3542,VALID,106,VALID,0.739309,
1999-11-02, 02:51:00,VALID,0,VALID,97.7991,VALID,0,VALID,19.3515,VALID,157,VALID,0.254934,
1999-11-02, 02:52:00,VALID,0,VALID,97.8347,VALID,-0.0169808,VALID,19.3343,VALID,167,VALID,0.0276605,
1999-11-02, 02:53:00,VALID,0,VALID,97.8716,VALID,0,VALID,19.3351,VALID,260,VALID,0.19375,
1999-11-02, 02:54:00,VALID,0,VALID,97.953,VALID,0,VALID,19.3385,VALID,206,VALID,0.165665,
1999-11-02, 02:55:00,VALID,0,VALID,97.9784,VALID,0,VALID,19.339,VALID,92,VALID,0.357936,
1999-11-02, 02:56:00,VALID,0,VALID,97.9314,VALID,0,VALID,19.3127,VALID,106,VALID,0.531055,
1999-11-02, 02:57:00,VALID,0,VALID,97.9072,VALID,-0.0169808,VALID,19.2963,VALID,105,VALID,0.315755,
1999-11-02, 02:58:00,VALID,0,VALID,97.9326,VALID,0,VALID,19.297,VALID,107,VALID,0.433594,
1999-11-02, 02:59:01,VALID,0,VALID,97.8868,VALID,0,VALID,19.2739,VALID,121,VALID,0.738692,
1999-11-02, 03:00:01,VALID,0,VALID,97.9377,VALID,0,VALID,19.2445,VALID,171,VALID,0.0452303,
1999-11-02, 03:01:00,VALID,0,VALID,98.0178,VALID,-0.0169808,VALID,19.2515,VALID,107,VALID,0,
1999-11-02, 03:02:00,VALID,0,VALID,98.0801,VALID,0,VALID,19.2385,VALID,173,VALID,0,
1999-11-02, 03:03:00,VALID,0,VALID,98.0954,VALID,0,VALID,19.2291,VALID,217,VALID,0,
1999-11-02, 03:04:00,VALID,0,VALID,98.1552,VALID,0,VALID,19.2162,VALID,199,VALID,0,
1999-11-02, 03:05:00,VALID,0,VALID,98.192,VALID,-0.0339617,VALID,19.2067,VALID,111,VALID,0.624383,
1999-11-02, 03:06:00,VALID,0,VALID,98.2022,VALID,-0.0169808,VALID,19.196,VALID,103,VALID,0.532895,
1999-11-02, 03:07:00,VALID,0,VALID,98.1768,VALID,-0.0169808,VALID,19.1838,VALID,124,VALID,0.0785473,
1999-11-02, 03:08:00,VALID,0,VALID,98.2225,VALID,0,VALID,19.1774,VALID,328,VALID,0.731836,
1999-11-02, 03:09:00,VALID,0,VALID,98.2658,VALID,0,VALID,19.1704,VALID,119,VALID,0.649038,
1999-11-02, 03:10:00,VALID,0,VALID,98.2429,VALID,0,VALID,19.1515,VALID,134,VALID,0.0374178,
1999-11-02, 03:11:00,VALID,0,VALID,98.1895,VALID,0,VALID,19.1448,VALID,141,VALID,0,
1999-11-02, 03:12:00,VALID,0,VALID,98.2238,VALID,-0.0339617,VALID,19.1249,VALID,184,VALID,0,
1999-11-02, 03:13:00,VALID,0,VALID,98.3077,VALID,0.0169808,VALID,19.1314,VALID,201,VALID,0,
1999-11-02, 03:14:00,VALID,0,VALID,98.3116,VALID,0,VALID,19.1182,VALID,201,VALID,0,
1999-11-02, 03:15:00,VALID,0,VALID,98.3128,VALID,0,VALID,19.1256,VALID,199,VALID,0,
1999-11-02, 03:16:00,VALID,0,VALID,98.2912,VALID,-0.0169808,VALID,19.1154,VALID,198,VALID,0,
1999-11-02, 03:17:00,VALID,0,VALID,98.295,VALID,-0.0679233,VALID,19.1164,VALID,199,VALID,0,
1999-11-02, 03:18:00,VALID,0,VALID,98.3294,VALID,-0.0849042,VALID,19.1199,VALID,200,VALID,0,
1999-11-02, 03:19:00,VALID,0,VALID,98.2823,VALID,-0.0849042,VALID,19.1099,VALID,154,VALID,0,
1999-11-02, 03:20:00,VALID,0,VALID,98.2327,VALID,-0.101885,VALID,19.0938,VALID,135,VALID,0,
1999-11-02, 03:21:01,VALID,0,VALID,98.2543,VALID,-0.0849042,VALID,19.0804,VALID,157,VALID,0,
1999-11-02, 03:22:00,VALID,0,VALID,98.3917,VALID,-0.0849042,VALID,19.0901,VALID,286,VALID,0.354519,
1999-11-02, 03:23:00,VALID,0,VALID,98.4756,VALID,-0.101885,VALID,19.1035,VALID,198,VALID,0.285742,
1999-11-02, 03:24:00,VALID,0,VALID,98.4845,VALID,-0.0849042,VALID,19.1,VALID,110,VALID,0.536859,
1999-11-02, 03:25:00,VALID,0,VALID,98.4247,VALID,-0.0849042,VALID,19.0672,VALID,107,VALID,0.536184,
1999-11-02, 03:26:00,VALID,0,VALID,98.4311,VALID,-0.0679233,VALID,19.0714,VALID,149,VALID,0.00722656,
1999-11-02, 03:27:00,VALID,0,VALID,98.5125,VALID,-0.101885,VALID,19.0647,VALID,78,VALID,0.539714,
1999-11-02, 03:28:00,VALID,0,VALID,98.4998,VALID,-0.101885,VALID,19.0677,VALID,188,VALID,0.200041,
1999-11-02, 03:29:00,VALID,0,VALID,98.5227,VALID,-0.0849042,VALID,19.0878,VALID,15,VALID,0.221217,
1999-11-02, 03:30:00,VALID,0,VALID,98.4845,VALID,-0.101885,VALID,19.0647,VALID,24,VALID,0.0692845,
1999-11-02, 03:31:01,VALID,0,VALID,98.4654,VALID,-0.0509425,VALID,19.0644,VALID,86,VALID,0.187283,
1999-11-02, 03:32:00,VALID,0,VALID,98.4756,VALID,0.0169808,VALID,19.0471,VALID,87,VALID,0,
1999-11-02, 03:33:00,VALID,0,VALID,98.4743,VALID,0.0509425,VALID,19.0669,VALID,99,VALID,0,
1999-11-02, 03:34:00,VALID,0,VALID,98.4832,VALID,0,VALID,19.057,VALID,100,VALID,0.389844,
1999-11-02, 03:35:00,VALID,0,VALID,98.4896,VALID,0.0339617,VALID,19.0503,VALID,92,VALID,0.358553,
1999-11-02, 03:36:00,VALID,0,VALID,98.4845,VALID,0,VALID,19.0441,VALID,112,VALID,0.320929,
1999-11-02, 03:37:00,VALID,0,VALID,98.5455,VALID,0.0169808,VALID,19.0274,VALID,110,VALID,0.374155,
1999-11-02, 03:38:00,VALID,0,VALID,98.557,VALID,0.0169808,VALID,19.0242,VALID,222,VALID,0.264453,
1999-11-02, 03:39:00,VALID,0,VALID,98.5875,VALID,0.0169808,VALID,19.0147,VALID,229,VALID,0.108173,
1999-11-02, 03:40:00,VALID,0,VALID,98.6765,VALID,0.0169808,VALID,19.0284,VALID,203,VALID,0.0378289,
1999-11-02, 03:41:00,VALID,0,VALID,98.7503,VALID,0,VALID,19.0277,VALID,209,VALID,0,
1999-11-02, 03:42:00,VALID,0,VALID,98.7859,VALID,0.0169808,VALID,19.0378,VALID,156,VALID,0,
1999-11-02, 03:43:00,VALID,0,VALID,98.7999,VALID,0.0169808,VALID,19.0277,VALID,198,VALID,0,
1999-11-02, 03:44:00,VALID,0,VALID,98.7503,VALID,0.0339617,VALID,19.015,VALID,179,VALID,0,
1999-11-02, 03:45:00,VALID,0,VALID,98.6905,VALID,0,VALID,18.9732,VALID,122,VALID,0,
1999-11-02, 03:46:00,VALID,0,VALID,98.6994,VALID,0.0339617,VALID,18.963,VALID,148,VALID,0,
1999-11-02, 03:47:00,VALID,0,VALID,98.7922,VALID,0.0169808,VALID,18.9565,VALID,137,VALID,0,
1999-11-02, 03:48:00,VALID,0,VALID,98.8456,VALID,0,VALID,18.9598,VALID,118,VALID,0,
1999-11-02, 03:49:00,VALID,0,VALID,98.8685,VALID,0,VALID,18.9662,VALID,161,VALID,0,
1999-11-02, 03:50:00,VALID,0,VALID,98.8533,VALID,0.0339617,VALID,18.9603,VALID,211,VALID,0,
1999-11-02, 03:51:00,VALID,0,VALID,98.9308,VALID,0,VALID,18.9436,VALID,218,VALID,0,
1999-11-02, 03:52:00,VALID,0,VALID,99.0186,VALID,0.0169808,VALID,18.9729,VALID,140,VALID,0,
1999-11-02, 03:53:00,VALID,0,VALID,99.0834,VALID,0.0169808,VALID,18.9921,VALID,137,VALID,0.240039,
1999-11-02, 03:54:00,VALID,0,VALID,99.0338,VALID,0,VALID,19.0048,VALID,73,VALID,0.71254,
1999-11-02, 03:55:00,VALID,0,VALID,98.9105,VALID,0,VALID,19.0085,VALID,119,VALID,0.369243,
1999-11-02, 03:56:00,VALID,0,VALID,98.8889,VALID,0.0169808,VALID,19.0155,VALID,175,VALID,0.238281,
1999-11-02, 03:57:00,VALID,0,VALID,98.9372,VALID,0,VALID,19.0277,VALID,150,VALID,0.17296,
1999-11-02, 03:58:00,VALID,0,VALID,98.9029,VALID,0.0169808,VALID,19.0478,VALID,131,VALID,0,
1999-11-02, 03:59:00,VALID,0,VALID,98.8622,VALID,0,VALID,19.0309,VALID,182,VALID,0,
1999-11-02, 04:00:00,VALID,0,VALID,98.9105,VALID,0,VALID,19.0475,VALID,200,VALID,0,
1999-11-02, 04:01:00,VALID,0,VALID,98.8851,VALID,0.0169808,VALID,19.057,VALID,133,VALID,0,
1999-11-02, 04:02:00,VALID,0,VALID,98.824,VALID,0.0679233,VALID,19.0408,VALID,135,VALID,0,
1999-11-02, 04:03:00,VALID,0,VALID,98.8088,VALID,0,VALID,19.0279,VALID,118,VALID,0,
1999-11-02, 04:04:01,VALID,0,VALID,98.7693,VALID,0.0679233,VALID,19.0115,VALID,118,VALID,0,
1999-11-02, 04:05:00,VALID,0,VALID,98.7096,VALID,0.0509425,VALID,18.9762,VALID,122,VALID,0,
1999-11-02, 04:06:00,VALID,0,VALID,98.7375,VALID,0.0509425,VALID,18.9697,VALID,198,VALID,0,
1999-11-02, 04:07:00,VALID,0,VALID,98.8558,VALID,0.0339617,VALID,18.9891,VALID,249,VALID,0.165963,
1999-11-02, 04:08:00,VALID,0,VALID,98.8723,VALID,0,VALID,18.9889,VALID,240,VALID,0,
1999-11-02, 04:09:00,VALID,0,VALID,98.8596,VALID,0.0849042,VALID,18.9956,VALID,187,VALID,0,
1999-11-02, 04:10:00,VALID,0,VALID,98.8088,VALID,0.0679233,VALID,18.9956,VALID,180,VALID,0,
1999-11-02, 04:11:00,VALID,0,VALID,98.7426,VALID,0.0339617,VALID,18.9692,VALID,155,VALID,0,
1999-11-02, 04:12:00,VALID,0,VALID,98.6206,VALID,0.0339617,VALID,18.9503,VALID,117,VALID,0,